Hourly Weather Roundup
Issued by NWS Central Illinois

Home | Current Version | Previous Version | Text Only | Print | Product List | Glossary On
Versions: 1 2 3 4 5 6 7 8 9 10 11 12 13 14 15 16 17 18 19 20 21 22 23 24 25 26 27 28 29 30 31 32 33 34 35 36 37 38 39 40 41 42 43 44 45 46 47 48 49 50
000
NZUS43 KILX 260210
HWRILX

AREA WEATHER ROUNDUP
NATIONAL WEATHER SERVICE, LINCOLN IL
800 PM CST SAT FEB 25 2017


CITY           SKY/WX    TMP DP  RH WIND       PRES   REMARKS
BLOOMINGTON    PTCLDY    26  17  68 W12       30.06R WCI  16
CHAMPAIGN      CLEAR     26  14  60 W9        30.06R WCI  17
DECATUR        CLEAR     30  12  47 W14       30.08S WCI  19
EFFINGHAM      CLEAR     29  20  69 W6        30.12R WCI  23
FLORA          CLEAR     32  17  54 W6        30.11S WCI  26
GALESBURG      CLOUDY    26  19  75 W5        30.07S WCI  21
JACKSONVILLE   CLEAR     28  13  51 SW3       30.10S
LACON          CLOUDY    28  18  67 W6        30.06R WCI  22
LAWRENCEVILLE  CLEAR     31  19  61 W8        30.11R WCI  23
LITCHFIELD     CLEAR     28  17  63 W3        30.11R
$$


CITY           SKY/WX    TMP DP  RH WIND       PRES   REMARKS
LINCOLN        CLEAR     30  17  57 W3        30.09S
MACOMB         CLEAR     26  20  80 W3        30.10S
MATTOON        CLEAR     27  15  61 W9        30.07R WCI  18
MT CARMEL AP   CLEAR     30  20  65 W5        30.10S WCI  25
OLNEY-NOBLE AP CLEAR     32  19  59 W3        30.12R
PARIS          CLEAR     27  17  66 W9        30.08R WCI  17
PEORIA         PTCLDY    28  17  63 W6        30.08R WCI  22
PONTIAC        CLOUDY    28  19  67 W12       30.05S WCI  18
RANTOUL        CLOUDY    28  20  71 W7        30.05S WCI  21
SPRINGFIELD    CLEAR     27  12  53 W7        30.10S WCI  19
TAYLORVILLE    CLEAR     27  11  51 W5        30.10R WCI  21
$$

...REGIONAL REPORTS...


CITY           SKY/WX    TMP DP  RH WIND       PRES   REMARKS
CHICAGO O`HARE PTCLDY    26  14  60 W9        29.99R WCI  17
KANKAKEE       CLOUDY    26  17  67 W8        30.04R WCI  18
MOLINE         CLOUDY    27  16  63 W8        30.06R WCI  19
MOUNT STERLING CLEAR     27  15  60 CALM      30.08S
MOUNT VERNON   CLEAR     29  17  61 CALM      30.13R
PITTSFIELD     CLEAR     27  17  65 CALM      30.11S
QUINCY         CLEAR     30  11  45 S3        30.08F
ROCKFORD       MOCLDY    24  15  68 W6        30.03R WCI  17
$$


CITY           SKY/WX    TMP DP  RH WIND       PRES   REMARKS
BURLINGTON     MOCLDY    26  18  71 CALM      30.07S
CEDAR RAPIDS   MOCLDY    22  16  78 SW5       30.02F WCI  16
DES MOINES     PTCLDY    29  18  63 S7        30.00F WCI  22
KIRKSVILLE     CLEAR     28  12  51 S3        30.06F
OTTUMWA        MOCLDY    25  18  74 S6        30.03F WCI  18
ST LOUIS       CLEAR     34  13  41 W5        30.12S WCI  30
$$


CITY           SKY/WX    TMP DP  RH WIND       PRES   REMARKS
TERRE HAUTE    CLEAR     31  13  47 W10       30.07R WCI  22
EVANSVILLE     CLEAR     33  17  51 CALM      30.12R
INDIANAPOLIS   MOCLDY    29  15  56 W10       30.03R WCI  20
LAFAYETTE      CLEAR     26  17  68 W10       30.03S WCI  16
MADISON        MOCLDY    21  14  74 CALM      29.97R
MILWAUKEE      PTCLDY    24  10  55 W7        29.96R WCI  16
$$





USA.gov is the U.S. government's official web portal to all federal, state and local government web resources and services.